Hourly Data Report for September 30, 2017

All times are specified in Local Standard Time (LST). Add 1 hour to adjust for Daylight Saving Time where and when it is observed.

RESOLUTE BAY A
NUNAVUT

74°43'01.000" N
94°58'10.000" W
67.70 m
2403498
71924
YRB

Download Data

Hourly Data (September 2017)
Hourly Data Report for September 30, 2017
Temp Definition
°C
Dew Point Temp Definition
°C
Rel Hum Definition
%
Wind Dir Definition
10's deg

Wind Spd Definition
km/h
Visibility Definition
km
Stn Press Definition
kPa
Hmdx Definition


Wind Chill Definition


Weather Definition


TIME
00:00 Legend Double Dagger -9.4 -10.7 91 36 23 24.1 100.60   -18 Snow
01:00 Legend Double Dagger -10.2 -11.7 89 3 25 24.1 100.64   -19 Snow
02:00 Legend Double Dagger -12.7 -14.6 86 2 17 24.1 100.68   -21 LegendNANA
03:00 Legend Double Dagger -13.0 -14.8 87 5 21 24.1 100.71   -22 Clear
04:00 Legend Double Dagger -12.1 -13.7 88 3 13 24.1 100.74   -19 LegendNANA
05:00 Legend Double Dagger -12.6 -14.4 87 4 25 24.1 100.76   -22 LegendNANA
06:00 Legend Double Dagger -13.0 -14.8 86 4 18 24.1 100.77   -21 Clear
07:00 Legend Double Dagger -13.0 -14.9 86 5 29 24.1 100.75   -23 LegendNANA
08:00 Legend Double Dagger -13.5 -15.3 86 32 11 24.1 100.80   -20 LegendNANA
09:00 Legend Double Dagger -12.8 -14.6 87 3 13 24.1 100.80   -20 Mainly Clear
10:00 Legend Double Dagger -11.8 -13.6 86 33 19 24.1 100.81   -20 LegendNANA
11:00 Legend Double Dagger -12.4 -14.3 86 1 23 24.1 100.81   -21 LegendNANA
12:00 Legend Double Dagger -11.6 -13.4 86 1 20 24.1 100.82   -20 Clear
13:00 Legend Double Dagger -13.1 -15.0 85 33 21 24.1 100.84   -22 LegendNANA
14:00 Legend Double Dagger -12.2 -14.0 86 35 23 24.1 100.85   -21 LegendNANA
15:00 Legend Double Dagger -12.4 -14.3 86 35 23 24.1 100.86   -21 Ice Crystals
16:00 Legend Double Dagger -12.0 -13.7 88 35 22 3.2 100.86   -21 Fog
17:00 Legend Double Dagger -12.1 -13.8 87 35 18 1.6 100.86   -20 Fog
18:00 Legend Double Dagger -10.6 -12.1 89 35 14 0.4 100.85   -17 Freezing Fog
19:00 Legend Double Dagger -10.0 -11.5 89 35 14 0.8 100.83   -16 Freezing Fog
20:00 Legend Double Dagger -9.9 -11.4 89 34 12 12.9 100.85   -16 LegendNANA
21:00 Legend Double Dagger -10.2 -11.8 89 34 14 19.3 100.85   -17 Cloudy
22:00 Legend Double Dagger -9.5 -10.9 89 34 13 16.1 100.82   -16 LegendNANA
23:00 Legend Double Dagger -10.6 -12.2 88 34 15 24.1 100.81   -17 LegendNANA

Notes on Data Quality.

Legend

  • E = Estimated
  • M = Missing
  • NA = Not Available
  • ‡ = Partner data that is not subject to review by the National Climate Archives
Date modified: